Regional Weather Roundup
Issued by NWS Cleveland, OH

Home | Current Version | Previous Version | Graphics & Text | Print | Product List | Glossary On
Versions: 1 2 3 4 5 6 7 8 9 10 11 12 13 14 15 16 17 18 19 20 21 22 23 24 25 26 27 28 29 30 31 32 33 34 35 36 37 38 39 40 41 42 43 44 45 46 47 48 49 50
000
ASUS41 KCLE 232112
RWRCLE
OHIO REGIONAL WEATHER ROUNDUP
NATIONAL WEATHER SERVICE WILMINGTON, OH
500 PM EDT SUN APR 23 2017

NOTE: "FAIR" INDICATES FEW OR NO CLOUDS BELOW 12,000 FEET WITH NO
SIGNIFICANT WEATHER AND/OR OBSTRUCTIONS TO VISIBILITY.

OHZ001>008-015>018-024>027-034-035-043-044-232200-
   NORTHWEST OHIO

CITY           SKY/WX    TMP DP  RH WIND       PRES   REMARKS
DEFIANCE       FAIR      66  30  26 VRB3      30.04F
FINDLAY        FAIR      69  32  25 E10       30.01F
TOLEDO EXPRESS FAIR      65  25  22 VRB5      30.05F
TOLEDO EXEC    FAIR      64  31  28 VRB7      30.06F
LIMA           FAIR      67  32  27 NE10      30.01F
$$

OHZ009>014-019>023-028>033-038-089-232200-
   NORTHEAST OHIO

CITY           SKY/WX    TMP DP  RH WIND       PRES   REMARKS
CLE-HOPKINS    FAIR      60  34  37 N12       30.07F
CLE-LAKEFRONT  FAIR      53  43  68 NE10      30.05F
CUY CO. ARPT   MOSUNNY   63  37  39 N12       30.05F
LORAIN-ELYRIA  FAIR      62  34  35 N9        30.05F
ASHTABULA      FAIR      62  35  36 VRB7      30.06S
AKRON-CANTON   PTSUNNY   68  33  27 E7        30.02F
WOOSTER        FAIR      67  34  29 NE6       30.02F
MANSFIELD      FAIR      68  32  26 N8        30.02F
YOUNGSTOWN     FAIR      69  32  25 VRB5      30.03F
$$

OHZ042-051>053-060>062-070>072-077>081-232200-
  SOUTHWEST OHIO

CITY           SKY/WX    TMP DP  RH WIND       PRES   REMARKS
CINC-COVINGTON PTSUNNY   63  35  35 NE14      29.95F
CINC-LUNKEN    FAIR      63  41  44 NE13      29.96F
HAMILTON       FAIR      65  38  36 E12       29.98F
DAYTON         PTSUNNY   67  31  26 NE16      29.98F
WRIGHT-PAT AFB FAIR      68  30  24 NE12      29.97F
DAYTON GENERAL FAIR      65  33  30 E13       29.97R
WILMINGTON     FAIR      62  37  39 NE13      29.97S
$$

OHZ036-037-039>041-045>050-054>059-063>069-073>076-082>088-232200-
  CENTRAL AND SOUTHEAST OHIO

CITY           SKY/WX    TMP DP  RH WIND       PRES   REMARKS
COLUMBUS       PTSUNNY   69  34  27 NE9       29.97S
OSU AIRPORT    FAIR      68  32  26 E12       29.98S
BOLTON FIELD   SUNNY     66  36  32 E6        29.99R
RICKENBACK AFB FAIR      65  35  33 NE9       29.97S
NEWARK         FAIR      69  33  26 NE9       29.98S
MARION         FAIR      67  30  25 NE13G21   30.00F
LANCASTER      FAIR      68  34  28 NE12      29.98S
ZANESVILLE     FAIR      66  32  28 E12       29.99S
NEW PHILLY     FAIR      70  29  21 E10       30.00F
$$




USA.gov is the U.S. government's official web portal to all federal, state and local government web resources and services.